Volver al catálogo

CZ-4 DEB

ActivoPO
NORAD 26129·DEBRIS·🇨🇳 China

Lanzado Oct 14, 1999 desde Taiyuan Satellite Launch Center

Loading…

Próximos Pases (próximas 24 horas)

TLE

ActualizadoSource: Space-Track

Época: Sep 13, 2026, 23:11 UTC

1 26129U 99057R   26256.96663298  .00000603  00000-0  44913-3 0  9993
2 26129  99.0094  75.7130 0435203 280.6773  74.5661 13.61427771310312

Sigue CZ-4 DEB en tiempo real con AllMySat

Download on the App Store